sat.trackr.live / text

‹ back to catalog

STARLINK-33615

NORAD 63426 · 2025-065AD

PAYLOAD ACTIVE UNKNOWN

§ Identity

Operator
Country
US
Launch date
2025-03-31
Launch site
AFETR
Launch vehicle
Mass (kg)
RCS (m²)

Purposes: comms

External: N2YO · Heavens-Above · Gunter

§ Orbital elements

Epoch: 2026-09-20T22:02:30.887520Z

Period
94.27 min
Inclination
43.0004°
Eccentricity
0.0001639
Mean motion
15.27590089 rev/d
Perigee alt
481.9 km
Apogee alt
484.1 km
Semi-major
6,861.2 km
B*
4.0354e-4
RAAN
84.8106°
Arg perigee
271.2569°
Mean anomaly
88.8095°
Rev number
8,269

§ Raw data

STARLINK-336151 63426U 25065AD  26263.91841305  .00010862  00000+0  40354-3 0  99942 63426  43.0004  84.8106 0001639 271.2569  88.8095 15.27590089 82691

JSON: /api/v1/satellites/63426 · /tle

For live sub-satellite position, see the globe view (requires WebGL).

§ Visibility from observer

Set your observer location to see the next 7 days of passes ≥ 10°. The values pass through the URL so the page stays shareable.

No JS? Fill the form by hand. The geolocation button needs JavaScript.